This is the latest recevied weather packets stored in our database for station/object KN6ZYR. If no packets are shown the sender has not sent any weather packets the latest 10 day(s).
| Time | Temp. | Humidity | Pressure | Rain* | Wind** | Luminosity | Snow |
|---|---|---|---|---|---|---|---|
| 1777927162 | 16.11° C | 35% | 1013.8 hPa | 0 mm | - | 106 W/m² | - |
| 1777926859 | 16.67° C | 34% | 1013.8 hPa | 0 mm | - | 116 W/m² | - |
| 1777926555 | 16.11° C | 33% | 1013.8 hPa | 0 mm | - | 122 W/m² | - |
| 1777926252 | 16.11° C | 37% | 1013.4 hPa | 0 mm | - | 116 W/m² | - |
| 1777925948 | 16.67° C | 35% | 1013.1 hPa | 0 mm | - | 114 W/m² | - |
| 1777925646 | 16.67° C | 34% | 1013.3 hPa | 0 mm | - | 131 W/m² | - |
| 1777925344 | 17.22° C | 31% | 1013.1 hPa | 0 mm | - | 135 W/m² | - |
| 1777925040 | 17.78° C | 29% | 1013 hPa | 0 mm | - | 145 W/m² | - |
| 1777924737 | 18.33° C | 28% | 1012.6 hPa | 0 mm | - | 147 W/m² | - |
| 1777924432 | 19.44° C | 26% | 1012.4 hPa | 0 mm | - | 152 W/m² | - |
| 1777924129 | 20° C | 24% | 1012.5 hPa | 0 mm | - | 163 W/m² | - |
| 1777923825 | 19.44° C | 24% | 1012.3 hPa | 0 mm | - | 190 W/m² | - |
| 1777923522 | 20° C | 29% | 1012 hPa | 0 mm | - | 208 W/m² | - |
| 1777923219 | 20° C | 25% | 1012.3 hPa | 0 mm | - | 199 W/m² | - |
| 1777922918 | 20.56° C | 25% | 1012.4 hPa | 0 mm | - | 230 W/m² | - |
| 1777922615 | 21.67° C | 24% | 1012.2 hPa | 0 mm | - | 279 W/m² | - |
| 1777922313 | 21.67° C | 23% | 1012.3 hPa | 0 mm | - | 534 W/m² | - |
| 1777922011 | 21.67° C | 23% | 1012.2 hPa | 0 mm | - | 738 W/m² | - |
| 1777921706 | 20.56° C | 25% | 1012.4 hPa | 0 mm | - | 731 W/m² | - |
| 1777921402 | 20° C | 28% | 1012.2 hPa | 0 mm | - | 593 W/m² | - |
| 1777921099 | 20.56° C | 27% | 1012.6 hPa | 0 mm | - | 934 W/m² | - |
| 1777920795 | 18.89° C | 29% | 1012.6 hPa | 0 mm | - | 840 W/m² | - |
| 1777920491 | 18.89° C | 31% | 1012.6 hPa | 0 mm | - | 251 W/m² | - |
| 1777920187 | 18.89° C | 30% | 1013 hPa | 0 mm | - | 273 W/m² | - |
| 1777919883 | 18.89° C | 29% | 1013 hPa | 0 mm | - | 264 W/m² | - |
* Rain latest hour (hover to see other rain measurements)
** Current wind speed in m/s (hover to see current wind gust speed)